Regional Weather Roundup
Issued by NWS

Home | Current Version | Previous Version | Graphics & Text | Print | Product List | Glossary On
Versions: 1 2 3 4 5 6 7 8 9 10 11 12 13 14 15 16 17 18 19 20 21 22 23 24 25 26 27 28 29 30 31 32 33 34 35 36 37 38 39 40 41 42 43 44 45 46 47 48 49 50
172
ASUS43 KFSD 170810
RWRSD

WEATHER ROUNDUP FOR SOUTH DAKOTA
NATIONAL WEATHER SERVICE SIOUX FALLS SD
200 AM CST SUN DEC 17 2017

NOTE: "FAIR" INDICATES FEW OR NO CLOUDS BELOW 12,000 FEET WITH NO
SIGNIFICANT WEATHER AND/OR OBSTRUCTIONS TO VISIBILITY.


SDZ001>005-009-010-012>017-170900-
NORTHWEST AND NORTH CENTRAL SOUTH DAKOTA

CITY           SKY/WX    TMP DP  RH WIND       PRES   REMARKS
BUFFALO          N/A     26  22  84 W5        29.97F WCI  20
FAITH            N/A     25  22  88 W6        30.04F WCI  18
MOBRIDGE       CLOUDY    24  21  88 CALM      30.03F
$$

SDZ012>016-024>037-041>051-057-063-072>074-170900-
SOUTHWEST AND SOUTH CENTRAL SOUTH DAKOTA

CITY           SKY/WX    TMP DP  RH WIND       PRES   REMARKS
RAPID CTY ARPT LGT SNOW  29  27  92 NW6       30.04F FOG     WCI  23
PIERRE         CLOUDY    30  29  96 N6        30.05F WCI  24
CUSTER         CLOUDY    23  18  81 N3        29.95F
ELLSWORTH AFB  LGT SNOW  29  29 100 W5        30.03  FOG     WCI  24
PHILIP         CLOUDY    30  28  92 SW3       30.05F
PINE RIDGE     CLOUDY    30  27  88 CALM      30.03S
SPEARFISH      MIX PCPN  28  28 100 CALM      30.02F
WINNER         PTSUNNY   31  29  92 NW3       30.04F
$$

SDZ004>011-016>023-039-040-170900-
NORTHEAST SOUTH DAKOTA

CITY           SKY/WX    TMP DP  RH WIND       PRES   REMARKS
ABERDEEN       PTCLDY    25  25 100 CALM      30.06F
WATERTOWN      CLOUDY    26  25  96 CALM      30.03F FOG
BROOKINGS      CLOUDY    27  26  96 CALM      30.06R FOG
SISSETON         N/A     24  23  96 CALM      30.06F
$$

SDZ017-020-022-023-036>040-048>070-170900-
SOUTHEAST SOUTH DAKOTA

CITY           SKY/WX    TMP DP  RH WIND       PRES   REMARKS
SIOUX FALLS    PTCLDY    21  21 100 N6        30.03F FOG     WCI  13
HURON          FOG       29  29 100 CALM      30.07S VSB 1/4
CHAMBERLAIN    MOCLDY    31  31  99 CALM      30.06S
MITCHELL       PTCLDY    27  27 100 CALM      30.07F FOG
YANKTON        CLEAR     26  24  92 N7        30.03F WCI  18
$$

ABBREVIATIONS USED IN REMARKS
   TC - TEMPERATURE IN CELSIUS
  WCI - WIND CHILL INDEX
   HX - HEAT INDEX
  VSB - VISIBILITY





USA.gov is the U.S. government's official web portal to all federal, state and local government web resources and services.